Location: Devore Heights
(34.2372°N, 117.4156°W)
Time: 01:39:54
(UTC+00:00)

SR - Pass Details

Date: 20 September 2024
Orbit: 578 x 855 km, 66.7° (Epoch: 02 October)

Event Time Altitude Azimuth Distance (km) Brightness Sun altitude
Rises 20:36:13 0° 254° (WSW) 2,804 ? 54.2°
Reaches altitude 10° 20:39:47 10° 285° (WNW) 1,891 ? 53.9°
Maximum altitude 20:41:29 12° 309° (NW) 1,753 ? 53.7°
Drops below altitude 10° 20:43:12 10° 333° (NNW) 1,894 ? 53.6°
Sets 20:46:48 0° 5° (N) 2,815 ? 53.2°
